Location: Peterborough
(44.3091°N, 78.3197°W)
Time: 07:47:06
(UTC-05:00)

Transit 4A - Pass Details

Date: 07 October 2023
Orbit: 864 x 979 km, 66.8° (Epoch: 07 December)

Event Time Altitude Azimuth Distance (km) Brightness Sun altitude
Rises 19:51:41 0° 325° (NW) 3,666 11.6 -13.0°
Reaches altitude 10° 19:54:18 10° 322° (NW) 2,705 11.0 -13.5°
Maximum altitude 20:00:29 60° 244° (WSW) 1,076 8.5 -14.6°
Drops below altitude 10° 20:06:28 10° 166° (SSE) 2,615 10.0 -15.7°
Sets 20:08:58 0° 163° (SSE) 3,537 10.7 -16.1°
